WELCOME TO TCFT

Voted One Of The Best Flight Schools In The USA

 

 

BECOME AN AIRLINE PILOT

Treasure Coast Flight Training is committed to serving all of your aviation needs as a full service flight academy, aircraft rental facility, and pilot shop

 

 

Questions About Becoming An Airline Pilot?

 

 

What Our Graduates Say

 

 

The training I received with Treasure Coast Flight Training prepared me to become a professional pilot

 

Nathan Meisner

Pilot - Cessna Caravan - USA

Professional yet relaxed environment. Truly an enjoyable experience to fly with TCFT

 

Sophia

Certified Flight Instructor - China

The training I needed to get me to where I am now!

 

Enderson Rafael

Pilot - Go Airlines - Brazil

Thank you TCFT for making me an airline pilot!

 

Kyle Barrett

Pilot - GoJet Airlines - USA

Current Conditions

 

Metar

 

KSUA 150515Z AUTO 00000KT 10SM CLR 24/23 A3010 RMK AO2

 

TAF

 

TAF KSUA 141740Z 1418/1518 12009KT P6SM VCTS SCT030CB BKN060 FM142000 12010KT P6SM SCT035 BKN250 FM150000 16005KT P6SM FEW100 BKN250 FM151400 12008KT P6SM SCT025

 

 

Look No Further. Get Started Today